User: anonymous   Login
Location: Unspecified
(0.0000°N, 0.0000°E)
Time: 20:00:07
(UTC+00:00)
Language:

BEESAT - Orbit

View from above orbital plane
View from above orbital plane
View from above satellite
View from above satellite

Ground track
Ground track

The orbit data is extracted from the following two-line orbital elements,

1 35933U 09051C   17144.89653345 +.00000136 +00000-0 +41772-4 0  9993
2 35933 098.4957 284.2850 0005371 348.5276 011.5798 14.56126652406950
Epoch (UTC): 24 May 2017 21:31:00
Eccentricity: 0.0005371
inclination: 98.4957°
perigee height: 702 km
apogee height: 709 km
right ascension of ascending node: 284.2850°
argument of perigee: 348.5276°
revolutions per day: 14.56126652
mean anomaly at epoch: 11.5798°
orbit number at epoch: 40695

The dashed part of the orbit path shows where the satellite is in the earth's shadow,  

DLR